[[{"header":{"parameterUnit":"m.s-1","parameterCategory":1,"la1":30.2991,"la2":30.254,"lo1":-89.0895,"lo2":-89.0444,"dx":0.0017,"dy":0.0017,"nx":28,"ny":28,"refTime":"2022-12-15T09:00:00:Z","depth":0,"parameterNumber":2,"parameterNumberName":"U-component_of_WINDS"},"data":[0,0,0,0,0,0,0,0,0,0,0,0,0,0,0,0,0,0,0,0,0,0,0,0,0,0,0,0,0,0,0,0,0,0,0,0,0,0,0,0,0,0,0,0,0,0,0,0,0,0,0,0,0,0,0,0,0,0,-0.8046,-0.8046,0,-0.8063,-0.8063,-0.8063,-0.8044,-0.8043,-0.8043,-0.8042,-0.806,-0.8061,-0.8062,0,0,0,0,0,0,0,0,0,0,0,0,0,-0.7998,-0.7999,-0.8046,-0.8046,-0.8046,-0.8063,-0.8063,-0.8063,-0.8044,-0.8043,-0.8042,-0.8042,-0.8059,-0.8061,-0.8062,0,0,0,0,0,0,0,0,0,0,0,0,0,-0.8017,-0.7999,-0.8046,-0.8039,-0.8038,-0.8063,-0.8063,-0.8063,-0.8044,-0.8043,-0.8042,-0.8041,-0.8059,-0.8061,-0.8062,-0.8095,0,0,-0.8068,-0.8068,0,0,0,0,0,0,0,0,-0.8016,-0.8019,-0.804,-0.8039,-0.8039,-0.805,-0.8052,-0.8074,-0.8045,-0.8042,-0.8042,-0.8041,-0.8058,-0.8059,-0.8065,-0.8095,-0.8096,-0.8068,-0.8069,-0.807,-0.807,0,0,0,0,0,0,0,-0.8015,-0.8018,-0.8052,-0.804,-0.8039,-0.8035,-0.8036,-0.8056,-0.8056,-0.8042,-0.8041,-0.8043,-0.8057,-0.8063,-0.8065,-0.8096,-0.8068,-0.8069,-0.807,-0.8071,-0.8154,-0.8156,0,0,0,0,0,0,-0.8014,-0.8017,-0.8052,-0.8053,-0.8025,-0.8037,-0.8038,-0.8048,-0.8055,-0.8056,-0.8044,-0.8042,-0.8061,-0.8063,-0.8066,-0.8104,-0.807,-0.8071,-0.8072,-0.8153,-0.8155,-0.8156,0,0,0,0,0,0,-0.8013,-0.8017,-0.8051,-0.8035,-0.8039,-0.8039,-0.8049,-0.8048,-0.8055,-0.8057,-0.8057,-0.805,-0.806,-0.8063,-0.8088,-0.8104,-0.8072,-0.8074,-0.8152,-0.8154,-0.8155,-0.8181,0,0,0,0,0,0,-0.8012,-0.8017,-0.8029,-0.8035,-0.804,-0.8073,-0.805,-0.805,-0.8057,-0.8055,-0.8063,-0.8063,-0.8059,-0.8085,-0.8089,-0.8106,-0.8075,-0.815,-0.8153,-0.8155,-0.8179,-0.8183,-0.8188,0,0,0,0,0,-0.801,-0.8036,-0.803,-0.8034,-0.8055,-0.8074,-0.8076,-0.8072,-0.8059,-0.8071,-0.8073,-0.8063,-0.8102,-0.8088,-0.8092,-0.811,-0.8149,-0.8152,-0.8155,-0.8177,-0.8183,-0.8187,0,0,0,0,0,0,-0.8033,-0.8037,-0.803,-0.8058,-0.8066,-0.807,-0.8086,-0.8078,-0.8089,-0.8087,-0.8081,-0.8083,-0.8108,-0.8112,-0.8096,-0.8142,-0.8123,-0.8127,-0.8139,-0.8144,-0.8149,-0.8148,-0.8076,0,0,0,0,0,-0.8041,-0.8056,-0.8058,-0.8083,-0.8087,-0.8086,-0.8094,-0.809,-0.8097,-0.8101,-0.8104,-0.8112,-0.8126,-0.8135,-0.8148,-0.8179,-0.818,-0.8193,-0.8198,-0.8201,-0.8205,-0.8222,-0.8227,-0.8165,-0.8165,-0.8165,0,0,-0.8058,-0.8062,-0.8072,-0.8088,-0.8093,-0.8109,-0.8089,-0.8106,-0.8118,-0.8103,-0.8126,-0.8129,-0.8137,-0.8165,-0.8177,-0.8168,-0.8222,-0.8205,-0.8208,-0.8209,-0.8225,-0.8231,-0.8236,-0.8166,-0.8166,-0.8166,0,0,-0.8098,-0.8102,-0.8123,-0.8129,-0.8137,-0.8136,-0.8141,-0.8147,-0.8148,-0.8171,-0.816,-0.8174,-0.8198,-0.8204,-0.8211,-0.8253,-0.8244,-0.8257,-0.828,-0.8297,-0.8302,-0.8306,-0.8321,-0.8327,-0.826,-0.826,-0.826,0,-0.8118,-0.8141,-0.8135,-0.8154,-0.8161,-0.8148,-0.8169,-0.8175,-0.8187,-0.8193,-0.8182,-0.8213,-0.8217,-0.8246,-0.8257,-0.8262,-0.8268,-0.8256,-0.8301,-0.8306,-0.831,-0.8324,-0.833,-0.8262,-0.8262,-0.8262,-0.8261,0,-0.8166,-0.8182,-0.8199,-0.821,-0.8219,-0.8239,-0.8237,-0.8247,-0.8241,-0.8241,-0.8265,-0.827,-0.8284,-0.8291,-0.8286,-0.8319,-0.8313,-0.8302,-0.8284,-0.8317,-0.8331,-0.8336,-0.8264,-0.8264,-0.8263,-0.8263,0,0,-0.8221,-0.8229,-0.8235,-0.824,-0.8248,-0.826,-0.8279,-0.8293,-0.8302,-0.831,-0.8327,-0.8347,-0.8337,-0.8344,-0.834,-0.8354,-0.8387,-0.8342,-0.8342,-0.835,-0.8425,-0.8433,-0.844,-0.8381,-0.8383,-0.8383,-0.8424,0,-0.8261,-0.8294,-0.8289,-0.8321,-0.8336,-0.8324,-0.8341,-0.8347,-0.8348,-0.8361,-0.8361,-0.8376,-0.8361,-0.8366,-0.8379,-0.8381,-0.8402,-0.8378,-0.8397,-0.8398,-0.8396,-0.8447,-0.8456,-0.8495,-0.8429,-0.843,-0.8431,0,-0.8312,-0.8323,-0.8356,-0.8361,-0.8368,-0.8383,-0.8395,-0.8407,-0.8414,-0.8414,-0.8422,-0.8415,-0.8434,-0.8415,-0.8442,-0.8425,-0.8433,-0.8434,-0.8436,-0.8438,-0.8417,-0.8451,-0.8507,-0.8513,-0.8439,-0.8438,-0.8438,0,-0.835,-0.8372,-0.8395,-0.8399,-0.8406,-0.8417,-0.842,-0.8426,-0.8435,-0.8445,-0.845,-0.8463,-0.847,-0.848,-0.8476,-0.8463,-0.8504,-0.8485,-0.8504,-0.8505,-0.8514,-0.8514,-0.8572,-0.8518,-0.8518,-0.8518,-0.8518,0,-0.8395,-0.8416,-0.8411,-0.8426,-0.8449,-0.8443,-0.8466,-0.8468,-0.8474,-0.8488,-0.8478,-0.8492,-0.8486,-0.85,-0.8497,-0.852,-0.8523,-0.8523,-0.8523,-0.8525,-0.8525,-0.853,-0.8527,-0.852,-0.8519,-0.8519,-0.8519,0,-0.8441,-0.8438,-0.8463,-0.8467,-0.8468,-0.8485,-0.8489,-0.8502,-0.8502,-0.852,-0.8524,-0.8523,-0.8539,-0.8536,-0.8553,-0.8552,-0.858,-0.8576,-0.8578,-0.8577,-0.8597,-0.8595,-0.8662,-0.867,-0.861,-0.8611,-0.8611,0,-0.8471,-0.8487,-0.8492,-0.8501,-0.8505,-0.8519,-0.8528,-0.8522,-0.8531,-0.8541,-0.8553,-0.8567,-0.8579,-0.8604,-0.8605,-0.8618,-0.8614,-0.8636,-0.8616,-0.8618,-0.8615,-0.8614,-0.8616,-0.8641,-0.8641,-0.8642,-0.8642,0,-0.8524,-0.8521,-0.8534,-0.8546,-0.8556,-0.8565,-0.8573,-0.8581,-0.8576,-0.8587,-0.8602,-0.8611,-0.8628,-0.8642,-0.8655,-0.8658,-0.865,-0.8649,-0.8654,-0.8657,-0.8657,-0.8658,-0.8589,-0.8647,-0.8647,-0.8646,-0.8646,-0.8646,-0.8563,-0.8576,-0.8582,-0.8596,-0.8602,-0.8609,-0.8622,-0.8623,-0.8636,-0.8649,-0.8645,-0.8663,-0.8669,-0.8685,-0.8689,-0.8703,-0.8695,-0.8703,-0.8705,-0.8707,-0.8709,-0.8654,-0.8705,-0.8705,-0.8705,-0.8705,-0.8705,0,-0.8616,-0.8619,-0.8631,-0.8643,-0.8654,-0.8644,-0.8653,-0.8663,-0.8678,-0.8685,-0.8696,-0.8714,-0.8728,-0.873,-0.8743,-0.8754,-0.875,-0.8757,-0.8757,-0.8758,-0.8716,-0.871,-0.876,-0.876,-0.876,-0.876,-0.876,-0.876,-0.8645,-0.8667,-0.8666,-0.8691,-0.8694,-0.8711,-0.8716,-0.8723,-0.8729,-0.8749,-0.876,-0.8761,-0.8766,-0.8779,-0.8792,-0.8792,-0.8798,-0.8807,-0.8805,-0.8766,-0.8761,-0.8756,-0.875,-0.8808,-0.8808,-0.8846,-0.8847,-0.8847]},{"header":{"parameterUnit":"m.s-1","parameterCategory":1,"la1":30.2991,"la2":30.254,"lo1":-89.0895,"lo2":-89.0444,"dx":0.0017,"dy":0.0017,"nx":28,"ny":28,"refTime":"2022-12-15T09:00:00:Z","depth":0,"parameterNumber":3,"parameterNumberName":"V-component_of_WINDS"},"data":[0,0,0,0,0,0,0,0,0,0,0,0,0,0,0,0,0,0,0,0,0,0,0,0,0,0,0,0,0,0,0,0,0,0,0,0,0,0,0,0,0,0,0,0,0,0,0,0,0,0,0,0,0,0,0,0,0,0,2.3079,2.3079,0,2.3066,2.3065,2.3065,2.3037,2.3036,2.3035,2.3035,2.302,2.302,2.302,0,0,0,0,0,0,0,0,0,0,0,0,0,2.308,2.308,2.3079,2.3079,2.3079,2.3066,2.3065,2.3065,2.3037,2.3036,2.3035,2.3035,2.302,2.302,2.302,0,0,0,0,0,0,0,0,0,0,0,0,0,2.3074,2.308,2.3079,2.3063,2.3062,2.3066,2.3065,2.3065,2.3037,2.3036,2.3035,2.3034,2.302,2.302,2.302,2.3039,0,0,2.3021,2.3021,0,0,0,0,0,0,0,0,2.3075,2.3074,2.3066,2.3064,2.3063,2.3052,2.306,2.3056,2.3037,2.3046,2.3035,2.3034,2.3031,2.303,2.303,2.3038,2.3037,2.3021,2.3021,2.3021,2.3021,0,0,0,0,0,0,0,2.3075,2.3075,2.3074,2.3066,2.3064,2.3056,2.3055,2.3059,2.3044,2.3045,2.3043,2.3042,2.303,2.303,2.3029,2.3037,2.3021,2.3021,2.3021,2.3021,2.3058,2.3059,0,0,0,0,0,0,2.3078,2.3075,2.3074,2.3073,2.3067,2.3057,2.3055,2.3056,2.3044,2.3041,2.3043,2.3041,2.303,2.3029,2.3029,2.3048,2.3021,2.3021,2.3021,2.3057,2.3058,2.3059,0,0,0,0,0,0,2.3078,2.3078,2.3075,2.3074,2.3073,2.3058,2.3059,2.3056,2.3056,2.3042,2.3039,2.3045,2.3029,2.3028,2.3036,2.3047,2.3021,2.3022,2.3056,2.3057,2.3059,2.3087,0,0,0,0,0,0,2.3078,2.3079,2.3086,2.3074,2.3073,2.3083,2.306,2.3057,2.3056,2.3053,2.3043,2.304,2.3028,2.3036,2.3036,2.3047,2.3022,2.3055,2.3057,2.3058,2.3085,2.3089,2.3093,0,0,0,0,0,2.3079,2.3095,2.3086,2.3086,2.3082,2.3084,2.3083,2.3069,2.3057,2.3064,2.3055,2.3041,2.3046,2.3037,2.3037,2.3048,2.3054,2.3056,2.3058,2.3083,2.3088,2.3092,0,0,0,0,0,0,2.3108,2.3093,2.3083,2.3096,2.3091,2.3079,2.3087,2.3075,2.3073,2.3071,2.3053,2.3051,2.3061,2.3055,2.3045,2.3064,2.3048,2.305,2.3067,2.3071,2.3075,2.3076,2.3022,0,0,0,0,0,2.3116,2.3119,2.3106,2.3118,2.3116,2.3102,2.3103,2.3092,2.3086,2.3084,2.3075,2.307,2.307,2.3071,2.3071,2.3085,2.3081,2.3092,2.3096,2.3099,2.31,2.3105,2.311,2.3065,2.3065,2.3065,0,0,2.3132,2.3124,2.3127,2.3124,2.3119,2.3122,2.3101,2.3105,2.3107,2.3085,2.3091,2.3085,2.3077,2.3088,2.3092,2.3084,2.3112,2.3101,2.3104,2.3104,2.3108,2.3112,2.3116,2.3067,2.3066,2.3066,0,0,2.3163,2.3158,2.3167,2.3163,2.3155,2.3146,2.3148,2.3137,2.3132,2.3138,2.3121,2.3123,2.3124,2.3119,2.3117,2.3145,2.3132,2.3146,2.3165,2.317,2.3174,2.3177,2.3185,2.3188,2.3148,2.3148,2.3148,0,2.3184,2.3188,2.3173,2.3178,2.3177,2.3157,2.3165,2.3162,2.3155,2.3154,2.3145,2.3145,2.3139,2.3147,2.3154,2.3153,2.3154,2.3146,2.3174,2.3177,2.318,2.3188,2.3191,2.3149,2.3149,2.3149,2.3149,0,2.3213,2.3216,2.3225,2.3218,2.3217,2.3224,2.321,2.3211,2.3201,2.3192,2.3198,2.319,2.3187,2.3188,2.3178,2.3195,2.3189,2.3178,2.3161,2.3186,2.3193,2.3196,2.3152,2.3151,2.3151,2.315,0,0,2.3261,2.3246,2.3249,2.3245,2.3236,2.3238,2.3243,2.324,2.3241,2.3237,2.324,2.3241,2.323,2.3227,2.3217,2.3222,2.3242,2.3209,2.3209,2.3214,2.3258,2.3265,2.3269,2.3234,2.3235,2.3235,2.3258,0,2.3289,2.3297,2.3284,2.3295,2.3297,2.3278,2.3283,2.3277,2.3269,2.3269,2.326,2.326,2.3247,2.3245,2.3249,2.3239,2.3251,2.3237,2.3235,2.3236,2.3236,2.3273,2.3281,2.3303,2.3261,2.3261,2.3261,0,2.3322,2.3319,2.333,2.3318,2.3319,2.3323,2.3319,2.3319,2.3312,2.3306,2.3303,2.329,2.3294,2.3278,2.3283,2.3274,2.3272,2.3267,2.3268,2.3266,2.3249,2.327,2.331,2.3313,2.3266,2.3265,2.3265,0,2.3353,2.3352,2.3359,2.3356,2.3343,2.3347,2.3341,2.3333,2.3332,2.3328,2.3327,2.3323,2.3321,2.3319,2.3305,2.3295,2.331,2.3294,2.3304,2.3304,2.3306,2.3306,2.3345,2.3308,2.3308,2.3308,2.3308,0,2.3384,2.3391,2.3372,2.3376,2.3383,2.3368,2.3375,2.3368,2.3361,2.3362,2.3347,2.3348,2.3331,2.333,2.332,2.3324,2.3323,2.3317,2.3314,2.3318,2.3318,2.3316,2.3313,2.3309,2.3309,2.3309,2.3309,0,2.342,2.3408,2.3413,2.3401,2.3397,2.3403,2.3392,2.3394,2.3385,2.3387,2.3387,2.3372,2.3371,2.3357,2.3353,2.3346,2.3353,2.3348,2.3355,2.3353,2.3363,2.3361,2.3399,2.3403,2.3366,2.3366,2.3367,0,2.344,2.3445,2.3433,2.3432,2.3428,2.3428,2.3426,2.3411,2.341,2.3402,2.3405,2.3402,2.3399,2.3397,2.3385,2.3382,2.3375,2.3389,2.3374,2.3377,2.3373,2.3372,2.3372,2.3391,2.3392,2.3392,2.3392,0,2.3475,2.3469,2.3467,2.3463,2.3461,2.3458,2.3453,2.3453,2.3437,2.3436,2.3434,2.3432,2.3427,2.3423,2.3418,2.3411,2.3399,2.3397,2.3399,2.3402,2.3405,2.3402,2.3362,2.3396,2.3396,2.3395,2.3395,2.3395,2.3502,2.3505,2.3497,2.3495,2.349,2.3486,2.3487,2.3478,2.3476,2.3471,2.3462,2.3461,2.3453,2.3443,2.3438,2.3437,2.3429,2.3432,2.3433,2.3433,2.3434,2.3407,2.3436,2.3436,2.3435,2.3435,2.3435,0,2.3535,2.3529,2.3528,2.3521,2.352,2.3508,2.3502,2.3501,2.3501,2.3494,2.3491,2.3488,2.3485,2.3473,2.3468,2.3469,2.3463,2.3468,2.3467,2.3466,2.3442,2.344,2.3473,2.3473,2.3473,2.3473,2.3473,2.3473,2.3552,2.3556,2.3549,2.355,2.3543,2.3542,2.3539,2.3535,2.3529,2.3527,2.3524,2.3516,2.3507,2.3502,2.3498,2.3494,2.3492,2.3499,2.3494,2.3471,2.3468,2.3464,2.3462,2.3499,2.3499,2.3517,2.3517,2.3518]}]]